N6382J KGSO-KFFA

Flight info

Callsign N6382J
Flight time N/A
Altitude 27000
Route HOPRZ1 TBARE DCT TYI DCT MQI DCT
Aircraft PC12/L-VGDW/C

Departure

Time 2026-04-27 00:12
Airport Piedmont Triad International Airport (KGSO)

Arrival

Time N/A
Airport First Flight Airport (KFFA)
Time Latitude Longitude Altitude Speed Heading
2026-04-26 23:57 36.09965 -79.94001 915 ft 0 kts 318°
2026-04-27 00:07 36.09965 -79.94002 915 ft 1 kts 318°
2026-04-27 00:08 36.09941 -79.94051 914 ft 16 kts 197°
2026-04-27 00:08 36.09901 -79.94040 913 ft 0 kts 142°
2026-04-27 00:08 36.09839 -79.93966 912 ft 20 kts 136°
2026-04-27 00:08 36.09763 -79.93943 911 ft 18 kts 220°
2026-04-27 00:09 36.09629 -79.94110 908 ft 31 kts 225°
2026-04-27 00:09 36.09501 -79.94270 906 ft 18 kts 226°
2026-04-27 00:09 36.09410 -79.94276 904 ft 17 kts 136°
2026-04-27 00:09 36.09392 -79.94254 904 ft 0 kts 133°
2026-04-27 00:10 36.09386 -79.94246 904 ft 0 kts 133°
2026-04-27 00:10 36.09374 -79.94229 903 ft 10 kts 132°
2026-04-27 00:11 36.09388 -79.94104 902 ft 28 kts 48°
2026-04-27 00:11 36.09663 -79.93757 907 ft 86 kts 45°
2026-04-27 00:11 36.10180 -79.93102 1012 ft 121 kts 46°
2026-04-27 00:11 36.10822 -79.92302 1474 ft 146 kts 47°
2026-04-27 00:12 36.11248 -79.91079 1981 ft 166 kts 76°
2026-04-27 00:12 36.11587 -79.89672 2546 ft 175 kts 64°
2026-04-27 00:12 36.12164 -79.88344 3212 ft 177 kts 58°
2026-04-27 00:12 36.12808 -79.87015 3814 ft 182 kts 56°
2026-04-27 00:13 36.13486 -79.85680 4419 ft 184 kts 55°
2026-04-27 00:13 36.14173 -79.84331 5044 ft 186 kts 53°
2026-04-27 00:13 36.14867 -79.82965 5656 ft 188 kts 53°
2026-04-27 00:13 36.15555 -79.81584 6289 ft 189 kts 53°
2026-04-27 00:14 36.16013 -79.80660 6691 ft 190 kts 54°
2026-04-27 00:14 36.16708 -79.79265 7287 ft 191 kts 54°
2026-04-27 00:14 36.17410 -79.77859 7888 ft 193 kts 54°
2026-04-27 00:14 36.18120 -79.76437 8498 ft 195 kts 55°
2026-04-27 00:15 36.18838 -79.74997 9124 ft 197 kts 55°
2026-04-27 00:15 36.19563 -79.73541 9759 ft 200 kts 55°
2026-04-27 00:15 36.20300 -79.72060 10364 ft 203 kts 55°
2026-04-27 00:15 36.21043 -79.70567 10957 ft 204 kts 56°
2026-04-27 00:16 36.21800 -79.69046 11452 ft 210 kts 56°
2026-04-27 00:16 36.22572 -79.67492 11951 ft 213 kts 56°
2026-04-27 00:16 36.23354 -79.65919 12452 ft 215 kts 57°
2026-04-27 00:16 36.24129 -79.64357 12951 ft 216 kts 57°
2026-04-27 00:17 36.24918 -79.62769 13462 ft 217 kts 57°
2026-04-27 00:17 36.25707 -79.61177 13975 ft 217 kts 57°
2026-04-27 00:17 36.26461 -79.59558 14439 ft 217 kts 64°
2026-04-27 00:17 36.26880 -79.57754 14908 ft 220 kts 78°
2026-04-27 00:18 36.26944 -79.55854 15390 ft 222 kts 87°
2026-04-27 00:18 36.26947 -79.53944 15878 ft 222 kts 86°
2026-04-27 00:18 36.26958 -79.52026 16375 ft 223 kts 86°
2026-04-27 00:18 36.26967 -79.50097 16880 ft 224 kts 86°
2026-04-27 00:19 36.26973 -79.48157 17395 ft 225 kts 86°
2026-04-27 00:19 36.26979 -79.46206 17916 ft 227 kts 86°
2026-04-27 00:19 36.26985 -79.44246 18442 ft 228 kts 86°
2026-04-27 00:19 36.26991 -79.42304 18905 ft 229 kts 86°
2026-04-27 00:20 36.26996 -79.40330 19374 ft 230 kts 86°
2026-04-27 00:20 36.27002 -79.38344 19849 ft 231 kts 86°
2026-04-27 00:20 36.27007 -79.36338 20333 ft 233 kts 86°
2026-04-27 00:20 36.27011 -79.34320 20826 ft 235 kts 86°
2026-04-27 00:21 36.27017 -79.32289 21330 ft 236 kts 86°
2026-04-27 00:21 36.27019 -79.30247 21857 ft 237 kts 86°
2026-04-27 00:21 36.27023 -79.28197 22379 ft 238 kts 86°
2026-04-27 00:21 36.27026 -79.26144 22914 ft 238 kts 86°
2026-04-27 00:22 36.26820 -79.24096 23445 ft 242 kts 101°
2026-04-27 00:22 36.26170 -79.22182 23938 ft 247 kts 116°
2026-04-27 00:22 36.25127 -79.20470 24356 ft 252 kts 127°
2026-04-27 00:22 36.23983 -79.18759 24595 ft 262 kts 126°
2026-04-27 00:23 36.22810 -79.16993 24835 ft 269 kts 127°
2026-04-27 00:23 36.21601 -79.15178 25089 ft 275 kts 127°
2026-04-27 00:23 36.20376 -79.13342 25333 ft 278 kts 127°
2026-04-27 00:23 36.19133 -79.11481 25584 ft 282 kts 127°
2026-04-27 00:24 36.17879 -79.09601 25837 ft 284 kts 127°
2026-04-27 00:24 36.16616 -79.07709 26086 ft 286 kts 127°
2026-04-27 00:24 36.15338 -79.05798 26338 ft 288 kts 127°
2026-04-27 00:24 36.14058 -79.03883 26593 ft 290 kts 127°
2026-04-27 00:25 36.12785 -79.01980 26844 ft 292 kts 127°
2026-04-27 00:25 36.11487 -79.00040 27095 ft 292 kts 127°
2026-04-27 00:25 36.10184 -78.98092 27160 ft 296 kts 127°
2026-04-27 00:25 36.09100 -78.95941 27151 ft 296 kts 111°
2026-04-27 00:26 36.08498 -78.93538 27154 ft 290 kts 96°
2026-04-27 00:26 36.08274 -78.91074 27158 ft 287 kts 92°
2026-04-27 00:26 36.08075 -78.88618 27138 ft 286 kts 92°
2026-04-27 00:26 36.07869 -78.86166 27139 ft 286 kts 92°
2026-04-27 00:27 36.07664 -78.83722 27140 ft 286 kts 92°
2026-04-27 00:27 36.07460 -78.81274 27141 ft 286 kts 92°
2026-04-27 00:27 36.07257 -78.78833 27141 ft 286 kts 92°
2026-04-27 00:27 36.07052 -78.76389 27141 ft 286 kts 92°